Index of /20260414/WXO-DD/model_gdps/15km/12/027
Name Last modified Size Description
Parent Directory -
20260414T12Z_MSC_GDPS_AbsoluteVorticity_IsbL-0200_LatLon0.15_PT027H.grib2 2026-04-14 16:07 1.2M
20260414T12Z_MSC_GDPS_AbsoluteVorticity_IsbL-0250_LatLon0.15_PT027H.grib2 2026-04-14 16:07 1.3M
20260414T12Z_MSC_GDPS_AbsoluteVorticity_IsbL-0500_LatLon0.15_PT027H.grib2 2026-04-14 16:07 1.4M
20260414T12Z_MSC_GDPS_AbsoluteVorticity_IsbL-0700_LatLon0.15_PT027H.grib2 2026-04-14 16:07 1.3M
20260414T12Z_MSC_GDPS_AbsoluteVorticity_IsbL-0850_LatLon0.15_PT027H.grib2 2026-04-14 16:07 1.6M
20260414T12Z_MSC_GDPS_AirTemp_AGL-120m_LatLon0.15_PT027H.grib2 2026-04-14 16:07 915K
20260414T12Z_MSC_GDPS_AirTemp_AGL-2m_LatLon0.15_PT027H.grib2 2026-04-14 16:07 1.0M
20260414T12Z_MSC_GDPS_AirTemp_AGL-40m_LatLon0.15_PT027H.grib2 2026-04-14 16:07 934K
20260414T12Z_MSC_GDPS_AirTemp_AGL-80m_LatLon0.15_PT027H.grib2 2026-04-14 16:07 924K
20260414T12Z_MSC_GDPS_AirTemp_IsbL-0001_LatLon0.15_PT027H.grib2 2026-04-14 16:07 698K
20260414T12Z_MSC_GDPS_AirTemp_IsbL-0005_LatLon0.15_PT027H.grib2 2026-04-14 16:07 684K
20260414T12Z_MSC_GDPS_AirTemp_IsbL-0010_LatLon0.15_PT027H.grib2 2026-04-14 16:07 758K
20260414T12Z_MSC_GDPS_AirTemp_IsbL-0020_LatLon0.15_PT027H.grib2 2026-04-14 16:07 702K
20260414T12Z_MSC_GDPS_AirTemp_IsbL-0030_LatLon0.15_PT027H.grib2 2026-04-14 16:07 752K
20260414T12Z_MSC_GDPS_AirTemp_IsbL-0050_LatLon0.15_PT027H.grib2 2026-04-14 16:07 893K
20260414T12Z_MSC_GDPS_AirTemp_IsbL-0100_LatLon0.15_PT027H.grib2 2026-04-14 16:07 949K
20260414T12Z_MSC_GDPS_AirTemp_IsbL-0150_LatLon0.15_PT027H.grib2 2026-04-14 16:07 965K
20260414T12Z_MSC_GDPS_AirTemp_IsbL-0175_LatLon0.15_PT027H.grib2 2026-04-14 16:07 952K
20260414T12Z_MSC_GDPS_AirTemp_IsbL-0200_LatLon0.15_PT027H.grib2 2026-04-14 16:07 964K
20260414T12Z_MSC_GDPS_AirTemp_IsbL-0225_LatLon0.15_PT027H.grib2 2026-04-14 16:07 970K
20260414T12Z_MSC_GDPS_AirTemp_IsbL-0250_LatLon0.15_PT027H.grib2 2026-04-14 16:07 1.0M
20260414T12Z_MSC_GDPS_AirTemp_IsbL-0275_LatLon0.15_PT027H.grib2 2026-04-14 16:07 940K
20260414T12Z_MSC_GDPS_AirTemp_IsbL-0300_LatLon0.15_PT027H.grib2 2026-04-14 16:07 953K
20260414T12Z_MSC_GDPS_AirTemp_IsbL-0350_LatLon0.15_PT027H.grib2 2026-04-14 16:07 931K
20260414T12Z_MSC_GDPS_AirTemp_IsbL-0400_LatLon0.15_PT027H.grib2 2026-04-14 16:07 941K
20260414T12Z_MSC_GDPS_AirTemp_IsbL-0450_LatLon0.15_PT027H.grib2 2026-04-14 16:07 960K
20260414T12Z_MSC_GDPS_AirTemp_IsbL-0500_LatLon0.15_PT027H.grib2 2026-04-14 16:07 1.0M
20260414T12Z_MSC_GDPS_AirTemp_IsbL-0550_LatLon0.15_PT027H.grib2 2026-04-14 16:07 1.0M
20260414T12Z_MSC_GDPS_AirTemp_IsbL-0600_LatLon0.15_PT027H.grib2 2026-04-14 16:07 893K
20260414T12Z_MSC_GDPS_AirTemp_IsbL-0650_LatLon0.15_PT027H.grib2 2026-04-14 16:07 922K
20260414T12Z_MSC_GDPS_AirTemp_IsbL-0700_LatLon0.15_PT027H.grib2 2026-04-14 16:07 954K
20260414T12Z_MSC_GDPS_AirTemp_IsbL-0750_LatLon0.15_PT027H.grib2 2026-04-14 16:07 1.0M
20260414T12Z_MSC_GDPS_AirTemp_IsbL-0800_LatLon0.15_PT027H.grib2 2026-04-14 16:07 1.1M
20260414T12Z_MSC_GDPS_AirTemp_IsbL-0850_LatLon0.15_PT027H.grib2 2026-04-14 16:07 1.1M
20260414T12Z_MSC_GDPS_AirTemp_IsbL-0875_LatLon0.15_PT027H.grib2 2026-04-14 16:07 1.2M
20260414T12Z_MSC_GDPS_AirTemp_IsbL-0900_LatLon0.15_PT027H.grib2 2026-04-14 16:07 1.1M
20260414T12Z_MSC_GDPS_AirTemp_IsbL-0925_LatLon0.15_PT027H.grib2 2026-04-14 16:07 1.1M
20260414T12Z_MSC_GDPS_AirTemp_IsbL-0950_LatLon0.15_PT027H.grib2 2026-04-14 16:07 1.2M
20260414T12Z_MSC_GDPS_AirTemp_IsbL-0970_LatLon0.15_PT027H.grib2 2026-04-14 16:07 1.2M
20260414T12Z_MSC_GDPS_AirTemp_IsbL-0985_LatLon0.15_PT027H.grib2 2026-04-14 16:07 1.1M
20260414T12Z_MSC_GDPS_AirTemp_IsbL-1000_LatLon0.15_PT027H.grib2 2026-04-14 16:07 1.1M
20260414T12Z_MSC_GDPS_AirTemp_IsbL-1015_LatLon0.15_PT027H.grib2 2026-04-14 16:07 1.1M
20260414T12Z_MSC_GDPS_Albedo_Sfc_LatLon0.15_PT027H.grib2 2026-04-14 16:07 245K
20260414T12Z_MSC_GDPS_CAPE_Sfc_LatLon0.15_PT027H.grib2 2026-04-14 16:07 3.9M
20260414T12Z_MSC_GDPS_CIN_Sfc_LatLon0.15_PT027H.grib2 2026-04-14 16:07 2.9M
20260414T12Z_MSC_GDPS_CloudWater_EAtm_LatLon0.15_PT027H.grib2 2026-04-14 16:07 527K
20260414T12Z_MSC_GDPS_ConvectivePrecip-Accum_Sfc_LatLon0.15_PT027H.grib2 2026-04-14 16:07 2.3M
20260414T12Z_MSC_GDPS_DewPointDepression_AGL-2m_LatLon0.15_PT027H.grib2 2026-04-14 16:07 757K
20260414T12Z_MSC_GDPS_DewPointDepression_IsbL-0010_LatLon0.15_PT027H.grib2 2026-04-14 16:07 11K
20260414T12Z_MSC_GDPS_DewPointDepression_IsbL-0020_LatLon0.15_PT027H.grib2 2026-04-14 16:07 49K
20260414T12Z_MSC_GDPS_DewPointDepression_IsbL-0030_LatLon0.15_PT027H.grib2 2026-04-14 16:07 71K
20260414T12Z_MSC_GDPS_DewPointDepression_IsbL-0050_LatLon0.15_PT027H.grib2 2026-04-14 16:07 358K
20260414T12Z_MSC_GDPS_DewPointDepression_IsbL-0100_LatLon0.15_PT027H.grib2 2026-04-14 16:07 382K
20260414T12Z_MSC_GDPS_DewPointDepression_IsbL-0150_LatLon0.15_PT027H.grib2 2026-04-14 16:07 456K
20260414T12Z_MSC_GDPS_DewPointDepression_IsbL-0175_LatLon0.15_PT027H.grib2 2026-04-14 16:07 531K
20260414T12Z_MSC_GDPS_DewPointDepression_IsbL-0200_LatLon0.15_PT027H.grib2 2026-04-14 16:07 625K
20260414T12Z_MSC_GDPS_DewPointDepression_IsbL-0225_LatLon0.15_PT027H.grib2 2026-04-14 16:07 757K
20260414T12Z_MSC_GDPS_DewPointDepression_IsbL-0250_LatLon0.15_PT027H.grib2 2026-04-14 16:07 878K
20260414T12Z_MSC_GDPS_DewPointDepression_IsbL-0275_LatLon0.15_PT027H.grib2 2026-04-14 16:07 902K
20260414T12Z_MSC_GDPS_DewPointDepression_IsbL-0300_LatLon0.15_PT027H.grib2 2026-04-14 16:07 948K
20260414T12Z_MSC_GDPS_DewPointDepression_IsbL-0350_LatLon0.15_PT027H.grib2 2026-04-14 16:07 1.0M
20260414T12Z_MSC_GDPS_DewPointDepression_IsbL-0400_LatLon0.15_PT027H.grib2 2026-04-14 16:07 1.0M
20260414T12Z_MSC_GDPS_DewPointDepression_IsbL-0450_LatLon0.15_PT027H.grib2 2026-04-14 16:07 1.0M
20260414T12Z_MSC_GDPS_DewPointDepression_IsbL-0500_LatLon0.15_PT027H.grib2 2026-04-14 16:07 1.0M
20260414T12Z_MSC_GDPS_DewPointDepression_IsbL-0550_LatLon0.15_PT027H.grib2 2026-04-14 16:07 1.1M
20260414T12Z_MSC_GDPS_DewPointDepression_IsbL-0600_LatLon0.15_PT027H.grib2 2026-04-14 16:07 1.1M
20260414T12Z_MSC_GDPS_DewPointDepression_IsbL-0650_LatLon0.15_PT027H.grib2 2026-04-14 16:07 1.1M
20260414T12Z_MSC_GDPS_DewPointDepression_IsbL-0700_LatLon0.15_PT027H.grib2 2026-04-14 16:07 1.1M
20260414T12Z_MSC_GDPS_DewPointDepression_IsbL-0750_LatLon0.15_PT027H.grib2 2026-04-14 16:07 1.1M
20260414T12Z_MSC_GDPS_DewPointDepression_IsbL-0800_LatLon0.15_PT027H.grib2 2026-04-14 16:07 1.2M
20260414T12Z_MSC_GDPS_DewPointDepression_IsbL-0850_LatLon0.15_PT027H.grib2 2026-04-14 16:07 1.1M
20260414T12Z_MSC_GDPS_DewPointDepression_IsbL-0875_LatLon0.15_PT027H.grib2 2026-04-14 16:07 1.1M
20260414T12Z_MSC_GDPS_DewPointDepression_IsbL-0900_LatLon0.15_PT027H.grib2 2026-04-14 16:07 1.1M
20260414T12Z_MSC_GDPS_DewPointDepression_IsbL-0925_LatLon0.15_PT027H.grib2 2026-04-14 16:07 1.0M
20260414T12Z_MSC_GDPS_DewPointDepression_IsbL-0950_LatLon0.15_PT027H.grib2 2026-04-14 16:07 1.0M
20260414T12Z_MSC_GDPS_DewPointDepression_IsbL-0970_LatLon0.15_PT027H.grib2 2026-04-14 16:07 1.0M
20260414T12Z_MSC_GDPS_DewPointDepression_IsbL-0985_LatLon0.15_PT027H.grib2 2026-04-14 16:07 1.0M
20260414T12Z_MSC_GDPS_DewPointDepression_IsbL-1000_LatLon0.15_PT027H.grib2 2026-04-14 16:07 1.0M
20260414T12Z_MSC_GDPS_DewPointDepression_IsbL-1015_LatLon0.15_PT027H.grib2 2026-04-14 16:07 921K
20260414T12Z_MSC_GDPS_DewPoint_AGL-2m_LatLon0.15_PT027H.grib2 2026-04-14 16:07 617K
20260414T12Z_MSC_GDPS_DownwardLongwaveRadiationFlux-Accum_Sfc_LatLon0.15_PT027H.grib2 2026-04-14 16:07 1.0M
20260414T12Z_MSC_GDPS_DownwardShortwaveRadiationFlux-Accum_NTAtm_LatLon0.15_PT027H.grib2 2026-04-14 16:07 203K
20260414T12Z_MSC_GDPS_DownwardShortwaveRadiationFlux-Accum_Sfc_LatLon0.15_PT027H.grib2 2026-04-14 16:07 1.2M
20260414T12Z_MSC_GDPS_FreezingRain-Accum1h_Sfc_LatLon0.15_PT027H.grib2 2026-04-14 16:07 41K
20260414T12Z_MSC_GDPS_FreezingRain-Accum3h_Sfc_LatLon0.15_PT027H.grib2 2026-04-14 16:07 57K
20260414T12Z_MSC_GDPS_FreezingRain-Accum_Sfc_LatLon0.15_PT027H.grib2 2026-04-14 16:07 123K
20260414T12Z_MSC_GDPS_GeopotentialHeight_IsbL-0001_LatLon0.15_PT027H.grib2 2026-04-14 16:07 545K
20260414T12Z_MSC_GDPS_GeopotentialHeight_IsbL-0005_LatLon0.15_PT027H.grib2 2026-04-14 16:07 510K
20260414T12Z_MSC_GDPS_GeopotentialHeight_IsbL-0010_LatLon0.15_PT027H.grib2 2026-04-14 16:07 586K
20260414T12Z_MSC_GDPS_GeopotentialHeight_IsbL-0020_LatLon0.15_PT027H.grib2 2026-04-14 16:07 582K
20260414T12Z_MSC_GDPS_GeopotentialHeight_IsbL-0030_LatLon0.15_PT027H.grib2 2026-04-14 16:07 586K
20260414T12Z_MSC_GDPS_GeopotentialHeight_IsbL-0050_LatLon0.15_PT027H.grib2 2026-04-14 16:07 579K
20260414T12Z_MSC_GDPS_GeopotentialHeight_IsbL-0100_LatLon0.15_PT027H.grib2 2026-04-14 16:07 613K
20260414T12Z_MSC_GDPS_GeopotentialHeight_IsbL-0150_LatLon0.15_PT027H.grib2 2026-04-14 16:07 629K
20260414T12Z_MSC_GDPS_GeopotentialHeight_IsbL-0175_LatLon0.15_PT027H.grib2 2026-04-14 16:07 632K
20260414T12Z_MSC_GDPS_GeopotentialHeight_IsbL-0200_LatLon0.15_PT027H.grib2 2026-04-14 16:07 635K
20260414T12Z_MSC_GDPS_GeopotentialHeight_IsbL-0225_LatLon0.15_PT027H.grib2 2026-04-14 16:07 638K
20260414T12Z_MSC_GDPS_GeopotentialHeight_IsbL-0250_LatLon0.15_PT027H.grib2 2026-04-14 16:07 637K
20260414T12Z_MSC_GDPS_GeopotentialHeight_IsbL-0275_LatLon0.15_PT027H.grib2 2026-04-14 16:07 637K
20260414T12Z_MSC_GDPS_GeopotentialHeight_IsbL-0300_LatLon0.15_PT027H.grib2 2026-04-14 16:07 630K
20260414T12Z_MSC_GDPS_GeopotentialHeight_IsbL-0350_LatLon0.15_PT027H.grib2 2026-04-14 16:07 627K
20260414T12Z_MSC_GDPS_GeopotentialHeight_IsbL-0400_LatLon0.15_PT027H.grib2 2026-04-14 16:07 616K
20260414T12Z_MSC_GDPS_GeopotentialHeight_IsbL-0450_LatLon0.15_PT027H.grib2 2026-04-14 16:07 536K
20260414T12Z_MSC_GDPS_GeopotentialHeight_IsbL-0500_LatLon0.15_PT027H.grib2 2026-04-14 16:07 524K
20260414T12Z_MSC_GDPS_GeopotentialHeight_IsbL-0550_LatLon0.15_PT027H.grib2 2026-04-14 16:07 520K
20260414T12Z_MSC_GDPS_GeopotentialHeight_IsbL-0600_LatLon0.15_PT027H.grib2 2026-04-14 16:07 684K
20260414T12Z_MSC_GDPS_GeopotentialHeight_IsbL-0650_LatLon0.15_PT027H.grib2 2026-04-14 16:07 683K
20260414T12Z_MSC_GDPS_GeopotentialHeight_IsbL-0700_LatLon0.15_PT027H.grib2 2026-04-14 16:07 682K
20260414T12Z_MSC_GDPS_GeopotentialHeight_IsbL-0750_LatLon0.15_PT027H.grib2 2026-04-14 16:07 687K
20260414T12Z_MSC_GDPS_GeopotentialHeight_IsbL-0800_LatLon0.15_PT027H.grib2 2026-04-14 16:07 701K
20260414T12Z_MSC_GDPS_GeopotentialHeight_IsbL-0850_LatLon0.15_PT027H.grib2 2026-04-14 16:07 711K
20260414T12Z_MSC_GDPS_GeopotentialHeight_IsbL-0875_LatLon0.15_PT027H.grib2 2026-04-14 16:07 716K
20260414T12Z_MSC_GDPS_GeopotentialHeight_IsbL-0900_LatLon0.15_PT027H.grib2 2026-04-14 16:07 722K
20260414T12Z_MSC_GDPS_GeopotentialHeight_IsbL-0925_LatLon0.15_PT027H.grib2 2026-04-14 16:07 730K
20260414T12Z_MSC_GDPS_GeopotentialHeight_IsbL-0950_LatLon0.15_PT027H.grib2 2026-04-14 16:07 738K
20260414T12Z_MSC_GDPS_GeopotentialHeight_IsbL-0970_LatLon0.15_PT027H.grib2 2026-04-14 16:07 750K
20260414T12Z_MSC_GDPS_GeopotentialHeight_IsbL-0985_LatLon0.15_PT027H.grib2 2026-04-14 16:07 766K
20260414T12Z_MSC_GDPS_GeopotentialHeight_IsbL-1000_LatLon0.15_PT027H.grib2 2026-04-14 16:07 787K
20260414T12Z_MSC_GDPS_GeopotentialHeight_IsbL-1015_LatLon0.15_PT027H.grib2 2026-04-14 16:07 810K
20260414T12Z_MSC_GDPS_Humidex_Sfc_LatLon0.15_PT027H.grib2 2026-04-14 16:07 5.3M
20260414T12Z_MSC_GDPS_IcePellets-Accum1h_Sfc_LatLon0.15_PT027H.grib2 2026-04-14 16:07 10K
20260414T12Z_MSC_GDPS_IcePellets-Accum3h_Sfc_LatLon0.15_PT027H.grib2 2026-04-14 16:07 12K
20260414T12Z_MSC_GDPS_IcePellets-Accum_Sfc_LatLon0.15_PT027H.grib2 2026-04-14 16:07 39K
20260414T12Z_MSC_GDPS_KIndex_Sfc_LatLon0.15_PT027H.grib2 2026-04-14 16:07 6.4M
20260414T12Z_MSC_GDPS_LatentHeatNetFlux_Sfc_LatLon0.15_PT027H.grib2 2026-04-14 16:07 688K
20260414T12Z_MSC_GDPS_LiftedIndex-MU-VT_IsbL-0500_LatLon0.15_PT027H.grib2 2026-04-14 16:07 5.4M
20260414T12Z_MSC_GDPS_NetLongwaveRadiationFlux-Accum_Sfc_LatLon0.15_PT027H.grib2 2026-04-14 16:07 1.2M
20260414T12Z_MSC_GDPS_NetShortwaveRadiationFlux-Accum_Sfc_LatLon0.15_PT027H.grib2 2026-04-14 16:07 1.2M
20260414T12Z_MSC_GDPS_O3MixingRatio_LatLon0.15_PT027H.grib2 2026-04-14 16:55 2.4M
20260414T12Z_MSC_GDPS_O3_EAtm_LatLon0.15_PT027H.grib2 2026-04-14 16:55 2.1M
20260414T12Z_MSC_GDPS_PlanetaryBoundaryLayerHeight_Sfc_LatLon0.15_PT027H.grib2 2026-04-14 16:07 2.5M
20260414T12Z_MSC_GDPS_Precip-Accum1h_Sfc_LatLon0.15_PT027H.grib2 2026-04-14 16:07 3.2M
20260414T12Z_MSC_GDPS_Precip-Accum3h_Sfc_LatLon0.15_PT027H.grib2 2026-04-14 16:07 3.5M
20260414T12Z_MSC_GDPS_Precip-Accum_Sfc_LatLon0.15_PT027H.grib2 2026-04-14 16:07 4.3M
20260414T12Z_MSC_GDPS_PrecipRate_Sfc_LatLon0.15_PT027H.grib2 2026-04-14 16:07 3.0M
20260414T12Z_MSC_GDPS_PrecipType-Instant_Sfc_LatLon0.15_PT027H.grib2 2026-04-14 16:07 1.6M
20260414T12Z_MSC_GDPS_Pressure_MSL_LatLon0.15_PT027H.grib2 2026-04-14 16:07 839K
20260414T12Z_MSC_GDPS_Pressure_PVU-1.5_LatLon0.15_PT027H.grib2 2026-04-14 16:07 5.8M
20260414T12Z_MSC_GDPS_Pressure_PVU-1_LatLon0.15_PT027H.grib2 2026-04-14 16:07 6.0M
20260414T12Z_MSC_GDPS_Pressure_PVU-2_LatLon0.15_PT027H.grib2 2026-04-14 16:07 5.9M
20260414T12Z_MSC_GDPS_Pressure_Sfc_LatLon0.15_PT027H.grib2 2026-04-14 16:07 1.1M
20260414T12Z_MSC_GDPS_RadiativeTemp_Sfc_LatLon0.15_PT027H.grib2 2026-04-14 16:07 668K
20260414T12Z_MSC_GDPS_Rain-Accum1h_Sfc_LatLon0.15_PT027H.grib2 2026-04-14 16:07 1.7M
20260414T12Z_MSC_GDPS_Rain-Accum3h_Sfc_LatLon0.15_PT027H.grib2 2026-04-14 16:07 1.7M
20260414T12Z_MSC_GDPS_Rain-Accum_Sfc_LatLon0.15_PT027H.grib2 2026-04-14 16:07 3.1M
20260414T12Z_MSC_GDPS_RelativeHumidity_AGL-2m_LatLon0.15_PT027H.grib2 2026-04-14 16:07 1.0M
20260414T12Z_MSC_GDPS_RelativeHumidity_IsbL-0010_LatLon0.15_PT027H.grib2 2026-04-14 16:07 246K
20260414T12Z_MSC_GDPS_RelativeHumidity_IsbL-0020_LatLon0.15_PT027H.grib2 2026-04-14 16:07 395K
20260414T12Z_MSC_GDPS_RelativeHumidity_IsbL-0030_LatLon0.15_PT027H.grib2 2026-04-14 16:07 532K
20260414T12Z_MSC_GDPS_RelativeHumidity_IsbL-0050_LatLon0.15_PT027H.grib2 2026-04-14 16:07 244K
20260414T12Z_MSC_GDPS_RelativeHumidity_IsbL-0100_LatLon0.15_PT027H.grib2 2026-04-14 16:07 500K
20260414T12Z_MSC_GDPS_RelativeHumidity_IsbL-0150_LatLon0.15_PT027H.grib2 2026-04-14 16:07 649K
20260414T12Z_MSC_GDPS_RelativeHumidity_IsbL-0175_LatLon0.15_PT027H.grib2 2026-04-14 16:07 573K
20260414T12Z_MSC_GDPS_RelativeHumidity_IsbL-0200_LatLon0.15_PT027H.grib2 2026-04-14 16:07 678K
20260414T12Z_MSC_GDPS_RelativeHumidity_IsbL-0225_LatLon0.15_PT027H.grib2 2026-04-14 16:07 770K
20260414T12Z_MSC_GDPS_RelativeHumidity_IsbL-0250_LatLon0.15_PT027H.grib2 2026-04-14 16:07 863K
20260414T12Z_MSC_GDPS_RelativeHumidity_IsbL-0275_LatLon0.15_PT027H.grib2 2026-04-14 16:07 891K
20260414T12Z_MSC_GDPS_RelativeHumidity_IsbL-0300_LatLon0.15_PT027H.grib2 2026-04-14 16:07 943K
20260414T12Z_MSC_GDPS_RelativeHumidity_IsbL-0350_LatLon0.15_PT027H.grib2 2026-04-14 16:07 969K
20260414T12Z_MSC_GDPS_RelativeHumidity_IsbL-0400_LatLon0.15_PT027H.grib2 2026-04-14 16:07 1.0M
20260414T12Z_MSC_GDPS_RelativeHumidity_IsbL-0450_LatLon0.15_PT027H.grib2 2026-04-14 16:07 1.0M
20260414T12Z_MSC_GDPS_RelativeHumidity_IsbL-0500_LatLon0.15_PT027H.grib2 2026-04-14 16:07 1.0M
20260414T12Z_MSC_GDPS_RelativeHumidity_IsbL-0550_LatLon0.15_PT027H.grib2 2026-04-14 16:07 1.1M
20260414T12Z_MSC_GDPS_RelativeHumidity_IsbL-0600_LatLon0.15_PT027H.grib2 2026-04-14 16:07 1.1M
20260414T12Z_MSC_GDPS_RelativeHumidity_IsbL-0650_LatLon0.15_PT027H.grib2 2026-04-14 16:07 1.1M
20260414T12Z_MSC_GDPS_RelativeHumidity_IsbL-0700_LatLon0.15_PT027H.grib2 2026-04-14 16:07 1.1M
20260414T12Z_MSC_GDPS_RelativeHumidity_IsbL-0750_LatLon0.15_PT027H.grib2 2026-04-14 16:07 1.2M
20260414T12Z_MSC_GDPS_RelativeHumidity_IsbL-0800_LatLon0.15_PT027H.grib2 2026-04-14 16:07 1.3M
20260414T12Z_MSC_GDPS_RelativeHumidity_IsbL-0850_LatLon0.15_PT027H.grib2 2026-04-14 16:07 1.3M
20260414T12Z_MSC_GDPS_RelativeHumidity_IsbL-0875_LatLon0.15_PT027H.grib2 2026-04-14 16:07 1.3M
20260414T12Z_MSC_GDPS_RelativeHumidity_IsbL-0900_LatLon0.15_PT027H.grib2 2026-04-14 16:07 1.3M
20260414T12Z_MSC_GDPS_RelativeHumidity_IsbL-0925_LatLon0.15_PT027H.grib2 2026-04-14 16:07 1.2M
20260414T12Z_MSC_GDPS_RelativeHumidity_IsbL-0950_LatLon0.15_PT027H.grib2 2026-04-14 16:07 1.2M
20260414T12Z_MSC_GDPS_RelativeHumidity_IsbL-0970_LatLon0.15_PT027H.grib2 2026-04-14 16:07 1.2M
20260414T12Z_MSC_GDPS_RelativeHumidity_IsbL-0985_LatLon0.15_PT027H.grib2 2026-04-14 16:07 1.2M
20260414T12Z_MSC_GDPS_RelativeHumidity_IsbL-1000_LatLon0.15_PT027H.grib2 2026-04-14 16:07 1.1M
20260414T12Z_MSC_GDPS_RelativeHumidity_IsbL-1015_LatLon0.15_PT027H.grib2 2026-04-14 16:07 1.1M
20260414T12Z_MSC_GDPS_RelativeVorticity_IsbL-0200_LatLon0.15_PT027H.grib2 2026-04-14 16:07 1.2M
20260414T12Z_MSC_GDPS_RelativeVorticity_IsbL-0250_LatLon0.15_PT027H.grib2 2026-04-14 16:07 1.3M
20260414T12Z_MSC_GDPS_RelativeVorticity_IsbL-0500_LatLon0.15_PT027H.grib2 2026-04-14 16:07 1.4M
20260414T12Z_MSC_GDPS_RelativeVorticity_IsbL-0700_LatLon0.15_PT027H.grib2 2026-04-14 16:07 1.3M
20260414T12Z_MSC_GDPS_RelativeVorticity_IsbL-0850_LatLon0.15_PT027H.grib2 2026-04-14 16:07 1.6M
20260414T12Z_MSC_GDPS_Runoff-Accum_Sfc_LatLon0.15_PT027H.grib2 2026-04-14 16:07 75K
20260414T12Z_MSC_GDPS_SensibleHeatNetFlux_Sfc_LatLon0.15_PT027H.grib2 2026-04-14 16:07 466K
20260414T12Z_MSC_GDPS_ShowalterIndex_IsbL-0500_LatLon0.15_PT027H.grib2 2026-04-14 16:07 6.2M
20260414T12Z_MSC_GDPS_Snow-Accum1h_Sfc_LatLon0.15_PT027H.grib2 2026-04-14 16:07 1.2M
20260414T12Z_MSC_GDPS_Snow-Accum3h_Sfc_LatLon0.15_PT027H.grib2 2026-04-14 16:07 1.1M
20260414T12Z_MSC_GDPS_Snow-Accum_Sfc_LatLon0.15_PT027H.grib2 2026-04-14 16:07 1.7M
20260414T12Z_MSC_GDPS_SnowDensity_Sfc_LatLon0.15_PT027H.grib2 2026-04-14 16:07 261K
20260414T12Z_MSC_GDPS_SnowDepth_Sfc_LatLon0.15_PT027H.grib2 2026-04-14 16:07 1.8M
20260414T12Z_MSC_GDPS_SoilTemp_DBS-0to10cm_LatLon0.15_PT027H.grib2 2026-04-14 16:07 498K
20260414T12Z_MSC_GDPS_SoilTemp_Sfc_LatLon0.15_PT027H.grib2 2026-04-14 16:07 575K
20260414T12Z_MSC_GDPS_SoilVolumetricIceContent_Sfc_LatLon0.15_PT027H.grib2 2026-04-14 16:07 225K
20260414T12Z_MSC_GDPS_SoilVolumetricWaterContent_DBS-0to10cm_LatLon0.15_PT027H.grib2 2026-04-14 16:07 552K
20260414T12Z_MSC_GDPS_SoilVolumetricWaterContent_DBS-0to1cm_LatLon0.15_PT027H.grib2 2026-04-14 16:07 645K
20260414T12Z_MSC_GDPS_SpecificHumidity_AGL-120m_LatLon0.15_PT027H.grib2 2026-04-14 16:07 1.1M
20260414T12Z_MSC_GDPS_SpecificHumidity_AGL-2m_LatLon0.15_PT027H.grib2 2026-04-14 16:07 1.2M
20260414T12Z_MSC_GDPS_SpecificHumidity_AGL-40m_LatLon0.15_PT027H.grib2 2026-04-14 16:07 1.1M
20260414T12Z_MSC_GDPS_SpecificHumidity_AGL-80m_LatLon0.15_PT027H.grib2 2026-04-14 16:07 1.1M
20260414T12Z_MSC_GDPS_SpecificHumidity_IsbL-0001_LatLon0.15_PT027H.grib2 2026-04-14 16:07 1.2M
20260414T12Z_MSC_GDPS_SpecificHumidity_IsbL-0005_LatLon0.15_PT027H.grib2 2026-04-14 16:07 1.2M
20260414T12Z_MSC_GDPS_SpecificHumidity_IsbL-0010_LatLon0.15_PT027H.grib2 2026-04-14 16:07 1.3M
20260414T12Z_MSC_GDPS_SpecificHumidity_IsbL-0020_LatLon0.15_PT027H.grib2 2026-04-14 16:07 1.4M
20260414T12Z_MSC_GDPS_SpecificHumidity_IsbL-0030_LatLon0.15_PT027H.grib2 2026-04-14 16:07 1.4M
20260414T12Z_MSC_GDPS_SpecificHumidity_IsbL-0050_LatLon0.15_PT027H.grib2 2026-04-14 16:07 1.4M
20260414T12Z_MSC_GDPS_SpecificHumidity_IsbL-0100_LatLon0.15_PT027H.grib2 2026-04-14 16:07 1.3M
20260414T12Z_MSC_GDPS_SpecificHumidity_IsbL-0150_LatLon0.15_PT027H.grib2 2026-04-14 16:07 1.4M
20260414T12Z_MSC_GDPS_SpecificHumidity_IsbL-0175_LatLon0.15_PT027H.grib2 2026-04-14 16:07 1.0M
20260414T12Z_MSC_GDPS_SpecificHumidity_IsbL-0200_LatLon0.15_PT027H.grib2 2026-04-14 16:07 1.0M
20260414T12Z_MSC_GDPS_SpecificHumidity_IsbL-0225_LatLon0.15_PT027H.grib2 2026-04-14 16:07 1.2M
20260414T12Z_MSC_GDPS_SpecificHumidity_IsbL-0250_LatLon0.15_PT027H.grib2 2026-04-14 16:07 1.2M
20260414T12Z_MSC_GDPS_SpecificHumidity_IsbL-0275_LatLon0.15_PT027H.grib2 2026-04-14 16:07 1.1M
20260414T12Z_MSC_GDPS_SpecificHumidity_IsbL-0300_LatLon0.15_PT027H.grib2 2026-04-14 16:07 1.2M
20260414T12Z_MSC_GDPS_SpecificHumidity_IsbL-0350_LatLon0.15_PT027H.grib2 2026-04-14 16:07 1.2M
20260414T12Z_MSC_GDPS_SpecificHumidity_IsbL-0400_LatLon0.15_PT027H.grib2 2026-04-14 16:07 1.4M
20260414T12Z_MSC_GDPS_SpecificHumidity_IsbL-0450_LatLon0.15_PT027H.grib2 2026-04-14 16:07 1.3M
20260414T12Z_MSC_GDPS_SpecificHumidity_IsbL-0500_LatLon0.15_PT027H.grib2 2026-04-14 16:07 1.5M
20260414T12Z_MSC_GDPS_SpecificHumidity_IsbL-0550_LatLon0.15_PT027H.grib2 2026-04-14 16:07 1.3M
20260414T12Z_MSC_GDPS_SpecificHumidity_IsbL-0600_LatLon0.15_PT027H.grib2 2026-04-14 16:07 1.4M
20260414T12Z_MSC_GDPS_SpecificHumidity_IsbL-0650_LatLon0.15_PT027H.grib2 2026-04-14 16:07 1.5M
20260414T12Z_MSC_GDPS_SpecificHumidity_IsbL-0700_LatLon0.15_PT027H.grib2 2026-04-14 16:07 1.6M
20260414T12Z_MSC_GDPS_SpecificHumidity_IsbL-0750_LatLon0.15_PT027H.grib2 2026-04-14 16:07 1.7M
20260414T12Z_MSC_GDPS_SpecificHumidity_IsbL-0800_LatLon0.15_PT027H.grib2 2026-04-14 16:07 1.8M
20260414T12Z_MSC_GDPS_SpecificHumidity_IsbL-0850_LatLon0.15_PT027H.grib2 2026-04-14 16:07 1.9M
20260414T12Z_MSC_GDPS_SpecificHumidity_IsbL-0875_LatLon0.15_PT027H.grib2 2026-04-14 16:07 1.9M
20260414T12Z_MSC_GDPS_SpecificHumidity_IsbL-0900_LatLon0.15_PT027H.grib2 2026-04-14 16:07 1.6M
20260414T12Z_MSC_GDPS_SpecificHumidity_IsbL-0925_LatLon0.15_PT027H.grib2 2026-04-14 16:07 1.6M
20260414T12Z_MSC_GDPS_SpecificHumidity_IsbL-0950_LatLon0.15_PT027H.grib2 2026-04-14 16:07 1.5M
20260414T12Z_MSC_GDPS_SpecificHumidity_IsbL-0970_LatLon0.15_PT027H.grib2 2026-04-14 16:07 1.5M
20260414T12Z_MSC_GDPS_SpecificHumidity_IsbL-0985_LatLon0.15_PT027H.grib2 2026-04-14 16:07 1.5M
20260414T12Z_MSC_GDPS_SpecificHumidity_IsbL-1000_LatLon0.15_PT027H.grib2 2026-04-14 16:07 1.5M
20260414T12Z_MSC_GDPS_SpecificHumidity_IsbL-1015_LatLon0.15_PT027H.grib2 2026-04-14 16:07 1.4M
20260414T12Z_MSC_GDPS_SpecificHumidity_Sfc_LatLon0.15_PT027H.grib2 2026-04-14 16:07 660K
20260414T12Z_MSC_GDPS_Thickness_IsbL-0850to0700_LatLon0.15_PT027H.grib2 2026-04-14 16:07 469K
20260414T12Z_MSC_GDPS_Thickness_IsbL-1000to0500_LatLon0.15_PT027H.grib2 2026-04-14 16:07 372K
20260414T12Z_MSC_GDPS_Thickness_IsbL-1000to0850_LatLon0.15_PT027H.grib2 2026-04-14 16:07 491K
20260414T12Z_MSC_GDPS_TotalCloudCover_Sfc_LatLon0.15_PT027H.grib2 2026-04-14 16:07 835K
20260414T12Z_MSC_GDPS_TotalTotalsIndex_Sfc_LatLon0.15_PT027H.grib2 2026-04-14 16:07 6.2M
20260414T12Z_MSC_GDPS_UVIndex-ClearSky_Sfc_LatLon0.15_PT027H.grib2 2026-04-14 16:55 1.0M
20260414T12Z_MSC_GDPS_UVIndex_Sfc_LatLon0.15_PT027H.grib2 2026-04-14 16:55 1.4M
20260414T12Z_MSC_GDPS_UpwardLongwaveRadiationFlux_NTAtm_LatLon0.15_PT027H.grib2 2026-04-14 16:07 838K
20260414T12Z_MSC_GDPS_VerticalVelocity_IsbL-0200_LatLon0.15_PT027H.grib2 2026-04-14 16:07 1.1M
20260414T12Z_MSC_GDPS_VerticalVelocity_IsbL-0250_LatLon0.15_PT027H.grib2 2026-04-14 16:07 1.0M
20260414T12Z_MSC_GDPS_VerticalVelocity_IsbL-0500_LatLon0.15_PT027H.grib2 2026-04-14 16:07 1.0M
20260414T12Z_MSC_GDPS_VerticalVelocity_IsbL-0600_LatLon0.15_PT027H.grib2 2026-04-14 16:07 1.1M
20260414T12Z_MSC_GDPS_VerticalVelocity_IsbL-0700_LatLon0.15_PT027H.grib2 2026-04-14 16:07 1.1M
20260414T12Z_MSC_GDPS_VerticalVelocity_IsbL-0850_LatLon0.15_PT027H.grib2 2026-04-14 16:07 1.6M
20260414T12Z_MSC_GDPS_WindChill_Sfc_LatLon0.15_PT027H.grib2 2026-04-14 16:07 5.3M
20260414T12Z_MSC_GDPS_WindDir_AGL-10m_LatLon0.15_PT027H.grib2 2026-04-14 16:07 1.3M
20260414T12Z_MSC_GDPS_WindDir_AGL-120m_LatLon0.15_PT027H.grib2 2026-04-14 16:07 1.4M
20260414T12Z_MSC_GDPS_WindDir_AGL-40m_LatLon0.15_PT027H.grib2 2026-04-14 16:07 1.4M
20260414T12Z_MSC_GDPS_WindDir_AGL-80m_LatLon0.15_PT027H.grib2 2026-04-14 16:07 1.4M
20260414T12Z_MSC_GDPS_WindDir_IsbL-0001_LatLon0.15_PT027H.grib2 2026-04-14 16:07 636K
20260414T12Z_MSC_GDPS_WindDir_IsbL-0005_LatLon0.15_PT027H.grib2 2026-04-14 16:07 784K
20260414T12Z_MSC_GDPS_WindDir_IsbL-0010_LatLon0.15_PT027H.grib2 2026-04-14 16:07 867K
20260414T12Z_MSC_GDPS_WindDir_IsbL-0020_LatLon0.15_PT027H.grib2 2026-04-14 16:07 935K
20260414T12Z_MSC_GDPS_WindDir_IsbL-0030_LatLon0.15_PT027H.grib2 2026-04-14 16:07 892K
20260414T12Z_MSC_GDPS_WindDir_IsbL-0050_LatLon0.15_PT027H.grib2 2026-04-14 16:07 948K
20260414T12Z_MSC_GDPS_WindDir_IsbL-0100_LatLon0.15_PT027H.grib2 2026-04-14 16:07 1.0M
20260414T12Z_MSC_GDPS_WindDir_IsbL-0150_LatLon0.15_PT027H.grib2 2026-04-14 16:07 1.0M
20260414T12Z_MSC_GDPS_WindDir_IsbL-0175_LatLon0.15_PT027H.grib2 2026-04-14 16:07 1.0M
20260414T12Z_MSC_GDPS_WindDir_IsbL-0200_LatLon0.15_PT027H.grib2 2026-04-14 16:07 1.1M
20260414T12Z_MSC_GDPS_WindDir_IsbL-0225_LatLon0.15_PT027H.grib2 2026-04-14 16:07 1.1M
20260414T12Z_MSC_GDPS_WindDir_IsbL-0250_LatLon0.15_PT027H.grib2 2026-04-14 16:07 1.1M
20260414T12Z_MSC_GDPS_WindDir_IsbL-0275_LatLon0.15_PT027H.grib2 2026-04-14 16:07 1.2M
20260414T12Z_MSC_GDPS_WindDir_IsbL-0300_LatLon0.15_PT027H.grib2 2026-04-14 16:07 1.2M
20260414T12Z_MSC_GDPS_WindDir_IsbL-0350_LatLon0.15_PT027H.grib2 2026-04-14 16:07 1.2M
20260414T12Z_MSC_GDPS_WindDir_IsbL-0400_LatLon0.15_PT027H.grib2 2026-04-14 16:07 1.3M
20260414T12Z_MSC_GDPS_WindDir_IsbL-0450_LatLon0.15_PT027H.grib2 2026-04-14 16:07 1.3M
20260414T12Z_MSC_GDPS_WindDir_IsbL-0500_LatLon0.15_PT027H.grib2 2026-04-14 16:07 1.4M
20260414T12Z_MSC_GDPS_WindDir_IsbL-0550_LatLon0.15_PT027H.grib2 2026-04-14 16:07 1.4M
20260414T12Z_MSC_GDPS_WindDir_IsbL-0600_LatLon0.15_PT027H.grib2 2026-04-14 16:07 1.5M
20260414T12Z_MSC_GDPS_WindDir_IsbL-0650_LatLon0.15_PT027H.grib2 2026-04-14 16:07 1.5M
20260414T12Z_MSC_GDPS_WindDir_IsbL-0700_LatLon0.15_PT027H.grib2 2026-04-14 16:07 1.6M
20260414T12Z_MSC_GDPS_WindDir_IsbL-0750_LatLon0.15_PT027H.grib2 2026-04-14 16:07 1.7M
20260414T12Z_MSC_GDPS_WindDir_IsbL-0800_LatLon0.15_PT027H.grib2 2026-04-14 16:07 1.8M
20260414T12Z_MSC_GDPS_WindDir_IsbL-0850_LatLon0.15_PT027H.grib2 2026-04-14 16:07 1.9M
20260414T12Z_MSC_GDPS_WindDir_IsbL-0875_LatLon0.15_PT027H.grib2 2026-04-14 16:07 2.0M
20260414T12Z_MSC_GDPS_WindDir_IsbL-0900_LatLon0.15_PT027H.grib2 2026-04-14 16:07 2.0M
20260414T12Z_MSC_GDPS_WindDir_IsbL-0925_LatLon0.15_PT027H.grib2 2026-04-14 16:07 2.0M
20260414T12Z_MSC_GDPS_WindDir_IsbL-0950_LatLon0.15_PT027H.grib2 2026-04-14 16:07 2.0M
20260414T12Z_MSC_GDPS_WindDir_IsbL-0970_LatLon0.15_PT027H.grib2 2026-04-14 16:07 2.0M
20260414T12Z_MSC_GDPS_WindDir_IsbL-0985_LatLon0.15_PT027H.grib2 2026-04-14 16:07 2.0M
20260414T12Z_MSC_GDPS_WindDir_IsbL-1000_LatLon0.15_PT027H.grib2 2026-04-14 16:07 2.1M
20260414T12Z_MSC_GDPS_WindDir_IsbL-1015_LatLon0.15_PT027H.grib2 2026-04-14 16:07 2.1M
20260414T12Z_MSC_GDPS_WindGust-Max_AGL-10m_LatLon0.15_PT027H.grib2 2026-04-14 16:07 2.2M
20260414T12Z_MSC_GDPS_WindGust-Min_AGL-10m_LatLon0.15_PT027H.grib2 2026-04-14 16:07 2.2M
20260414T12Z_MSC_GDPS_WindGust_AGL-10m_LatLon0.15_PT027H.grib2 2026-04-14 16:07 2.2M
20260414T12Z_MSC_GDPS_WindSpeed_AGL-10m_LatLon0.15_PT027H.grib2 2026-04-14 16:07 1.1M
20260414T12Z_MSC_GDPS_WindSpeed_AGL-120m_LatLon0.15_PT027H.grib2 2026-04-14 16:07 1.2M
20260414T12Z_MSC_GDPS_WindSpeed_AGL-40m_LatLon0.15_PT027H.grib2 2026-04-14 16:07 1.2M
20260414T12Z_MSC_GDPS_WindSpeed_AGL-80m_LatLon0.15_PT027H.grib2 2026-04-14 16:07 1.2M
20260414T12Z_MSC_GDPS_WindSpeed_IsbL-0001_LatLon0.15_PT027H.grib2 2026-04-14 16:07 637K
20260414T12Z_MSC_GDPS_WindSpeed_IsbL-0005_LatLon0.15_PT027H.grib2 2026-04-14 16:07 691K
20260414T12Z_MSC_GDPS_WindSpeed_IsbL-0010_LatLon0.15_PT027H.grib2 2026-04-14 16:07 631K
20260414T12Z_MSC_GDPS_WindSpeed_IsbL-0020_LatLon0.15_PT027H.grib2 2026-04-14 16:07 867K
20260414T12Z_MSC_GDPS_WindSpeed_IsbL-0030_LatLon0.15_PT027H.grib2 2026-04-14 16:07 861K
20260414T12Z_MSC_GDPS_WindSpeed_IsbL-0050_LatLon0.15_PT027H.grib2 2026-04-14 16:07 917K
20260414T12Z_MSC_GDPS_WindSpeed_IsbL-0100_LatLon0.15_PT027H.grib2 2026-04-14 16:07 1.1M
20260414T12Z_MSC_GDPS_WindSpeed_IsbL-0150_LatLon0.15_PT027H.grib2 2026-04-14 16:07 1.0M
20260414T12Z_MSC_GDPS_WindSpeed_IsbL-0175_LatLon0.15_PT027H.grib2 2026-04-14 16:07 1.0M
20260414T12Z_MSC_GDPS_WindSpeed_IsbL-0200_LatLon0.15_PT027H.grib2 2026-04-14 16:07 1.0M
20260414T12Z_MSC_GDPS_WindSpeed_IsbL-0225_LatLon0.15_PT027H.grib2 2026-04-14 16:07 1.1M
20260414T12Z_MSC_GDPS_WindSpeed_IsbL-0250_LatLon0.15_PT027H.grib2 2026-04-14 16:07 1.1M
20260414T12Z_MSC_GDPS_WindSpeed_IsbL-0275_LatLon0.15_PT027H.grib2 2026-04-14 16:07 1.1M
20260414T12Z_MSC_GDPS_WindSpeed_IsbL-0300_LatLon0.15_PT027H.grib2 2026-04-14 16:07 1.1M
20260414T12Z_MSC_GDPS_WindSpeed_IsbL-0350_LatLon0.15_PT027H.grib2 2026-04-14 16:07 1.1M
20260414T12Z_MSC_GDPS_WindSpeed_IsbL-0400_LatLon0.15_PT027H.grib2 2026-04-14 16:07 1.1M
20260414T12Z_MSC_GDPS_WindSpeed_IsbL-0450_LatLon0.15_PT027H.grib2 2026-04-14 16:07 1.1M
20260414T12Z_MSC_GDPS_WindSpeed_IsbL-0500_LatLon0.15_PT027H.grib2 2026-04-14 16:07 1.1M
20260414T12Z_MSC_GDPS_WindSpeed_IsbL-0550_LatLon0.15_PT027H.grib2 2026-04-14 16:07 1.1M
20260414T12Z_MSC_GDPS_WindSpeed_IsbL-0600_LatLon0.15_PT027H.grib2 2026-04-14 16:07 1.4M
20260414T12Z_MSC_GDPS_WindSpeed_IsbL-0650_LatLon0.15_PT027H.grib2 2026-04-14 16:07 1.4M
20260414T12Z_MSC_GDPS_WindSpeed_IsbL-0700_LatLon0.15_PT027H.grib2 2026-04-14 16:07 1.5M
20260414T12Z_MSC_GDPS_WindSpeed_IsbL-0750_LatLon0.15_PT027H.grib2 2026-04-14 16:07 1.6M
20260414T12Z_MSC_GDPS_WindSpeed_IsbL-0800_LatLon0.15_PT027H.grib2 2026-04-14 16:07 1.7M
20260414T12Z_MSC_GDPS_WindSpeed_IsbL-0850_LatLon0.15_PT027H.grib2 2026-04-14 16:07 1.7M
20260414T12Z_MSC_GDPS_WindSpeed_IsbL-0875_LatLon0.15_PT027H.grib2 2026-04-14 16:07 1.8M
20260414T12Z_MSC_GDPS_WindSpeed_IsbL-0900_LatLon0.15_PT027H.grib2 2026-04-14 16:07 1.8M
20260414T12Z_MSC_GDPS_WindSpeed_IsbL-0925_LatLon0.15_PT027H.grib2 2026-04-14 16:07 1.8M
20260414T12Z_MSC_GDPS_WindSpeed_IsbL-0950_LatLon0.15_PT027H.grib2 2026-04-14 16:07 1.9M
20260414T12Z_MSC_GDPS_WindSpeed_IsbL-0970_LatLon0.15_PT027H.grib2 2026-04-14 16:07 1.9M
20260414T12Z_MSC_GDPS_WindSpeed_IsbL-0985_LatLon0.15_PT027H.grib2 2026-04-14 16:07 1.9M
20260414T12Z_MSC_GDPS_WindSpeed_IsbL-1000_LatLon0.15_PT027H.grib2 2026-04-14 16:07 1.9M
20260414T12Z_MSC_GDPS_WindSpeed_IsbL-1015_LatLon0.15_PT027H.grib2 2026-04-14 16:07 1.8M
20260414T12Z_MSC_GDPS_WindU_AGL-10m_LatLon0.15_PT027H.grib2 2026-04-14 16:07 1.3M
20260414T12Z_MSC_GDPS_WindU_AGL-120m_LatLon0.15_PT027H.grib2 2026-04-14 16:07 1.0M
20260414T12Z_MSC_GDPS_WindU_AGL-40m_LatLon0.15_PT027H.grib2 2026-04-14 16:07 973K
20260414T12Z_MSC_GDPS_WindU_AGL-80m_LatLon0.15_PT027H.grib2 2026-04-14 16:07 1.0M
20260414T12Z_MSC_GDPS_WindU_IsbL-0001_LatLon0.15_PT027H.grib2 2026-04-14 16:07 499K
20260414T12Z_MSC_GDPS_WindU_IsbL-0005_LatLon0.15_PT027H.grib2 2026-04-14 16:07 690K
20260414T12Z_MSC_GDPS_WindU_IsbL-0010_LatLon0.15_PT027H.grib2 2026-04-14 16:07 704K
20260414T12Z_MSC_GDPS_WindU_IsbL-0020_LatLon0.15_PT027H.grib2 2026-04-14 16:07 741K
20260414T12Z_MSC_GDPS_WindU_IsbL-0030_LatLon0.15_PT027H.grib2 2026-04-14 16:07 740K
20260414T12Z_MSC_GDPS_WindU_IsbL-0050_LatLon0.15_PT027H.grib2 2026-04-14 16:07 707K
20260414T12Z_MSC_GDPS_WindU_IsbL-0100_LatLon0.15_PT027H.grib2 2026-04-14 16:07 927K
20260414T12Z_MSC_GDPS_WindU_IsbL-0150_LatLon0.15_PT027H.grib2 2026-04-14 16:07 1.0M
20260414T12Z_MSC_GDPS_WindU_IsbL-0175_LatLon0.15_PT027H.grib2 2026-04-14 16:07 1.0M
20260414T12Z_MSC_GDPS_WindU_IsbL-0200_LatLon0.15_PT027H.grib2 2026-04-14 16:07 840K
20260414T12Z_MSC_GDPS_WindU_IsbL-0225_LatLon0.15_PT027H.grib2 2026-04-14 16:07 852K
20260414T12Z_MSC_GDPS_WindU_IsbL-0250_LatLon0.15_PT027H.grib2 2026-04-14 16:07 856K
20260414T12Z_MSC_GDPS_WindU_IsbL-0275_LatLon0.15_PT027H.grib2 2026-04-14 16:07 885K
20260414T12Z_MSC_GDPS_WindU_IsbL-0300_LatLon0.15_PT027H.grib2 2026-04-14 16:07 875K
20260414T12Z_MSC_GDPS_WindU_IsbL-0350_LatLon0.15_PT027H.grib2 2026-04-14 16:07 889K
20260414T12Z_MSC_GDPS_WindU_IsbL-0400_LatLon0.15_PT027H.grib2 2026-04-14 16:07 1.1M
20260414T12Z_MSC_GDPS_WindU_IsbL-0450_LatLon0.15_PT027H.grib2 2026-04-14 16:07 1.1M
20260414T12Z_MSC_GDPS_WindU_IsbL-0500_LatLon0.15_PT027H.grib2 2026-04-14 16:07 1.1M
20260414T12Z_MSC_GDPS_WindU_IsbL-0550_LatLon0.15_PT027H.grib2 2026-04-14 16:07 1.1M
20260414T12Z_MSC_GDPS_WindU_IsbL-0600_LatLon0.15_PT027H.grib2 2026-04-14 16:07 1.1M
20260414T12Z_MSC_GDPS_WindU_IsbL-0650_LatLon0.15_PT027H.grib2 2026-04-14 16:07 1.2M
20260414T12Z_MSC_GDPS_WindU_IsbL-0700_LatLon0.15_PT027H.grib2 2026-04-14 16:07 1.2M
20260414T12Z_MSC_GDPS_WindU_IsbL-0750_LatLon0.15_PT027H.grib2 2026-04-14 16:07 1.3M
20260414T12Z_MSC_GDPS_WindU_IsbL-0800_LatLon0.15_PT027H.grib2 2026-04-14 16:07 1.4M
20260414T12Z_MSC_GDPS_WindU_IsbL-0850_LatLon0.15_PT027H.grib2 2026-04-14 16:07 1.4M
20260414T12Z_MSC_GDPS_WindU_IsbL-0875_LatLon0.15_PT027H.grib2 2026-04-14 16:07 1.5M
20260414T12Z_MSC_GDPS_WindU_IsbL-0900_LatLon0.15_PT027H.grib2 2026-04-14 16:07 1.5M
20260414T12Z_MSC_GDPS_WindU_IsbL-0925_LatLon0.15_PT027H.grib2 2026-04-14 16:07 1.5M
20260414T12Z_MSC_GDPS_WindU_IsbL-0950_LatLon0.15_PT027H.grib2 2026-04-14 16:07 1.4M
20260414T12Z_MSC_GDPS_WindU_IsbL-0970_LatLon0.15_PT027H.grib2 2026-04-14 16:07 1.4M
20260414T12Z_MSC_GDPS_WindU_IsbL-0985_LatLon0.15_PT027H.grib2 2026-04-14 16:07 1.4M
20260414T12Z_MSC_GDPS_WindU_IsbL-1000_LatLon0.15_PT027H.grib2 2026-04-14 16:07 1.4M
20260414T12Z_MSC_GDPS_WindU_IsbL-1015_LatLon0.15_PT027H.grib2 2026-04-14 16:07 1.4M
20260414T12Z_MSC_GDPS_WindV_AGL-10m_LatLon0.15_PT027H.grib2 2026-04-14 16:07 1.3M
20260414T12Z_MSC_GDPS_WindV_AGL-120m_LatLon0.15_PT027H.grib2 2026-04-14 16:07 1.0M
20260414T12Z_MSC_GDPS_WindV_AGL-40m_LatLon0.15_PT027H.grib2 2026-04-14 16:07 973K
20260414T12Z_MSC_GDPS_WindV_AGL-80m_LatLon0.15_PT027H.grib2 2026-04-14 16:07 1.0M
20260414T12Z_MSC_GDPS_WindV_IsbL-0001_LatLon0.15_PT027H.grib2 2026-04-14 16:07 547K
20260414T12Z_MSC_GDPS_WindV_IsbL-0005_LatLon0.15_PT027H.grib2 2026-04-14 16:07 608K
20260414T12Z_MSC_GDPS_WindV_IsbL-0010_LatLon0.15_PT027H.grib2 2026-04-14 16:07 807K
20260414T12Z_MSC_GDPS_WindV_IsbL-0020_LatLon0.15_PT027H.grib2 2026-04-14 16:07 938K
20260414T12Z_MSC_GDPS_WindV_IsbL-0030_LatLon0.15_PT027H.grib2 2026-04-14 16:07 936K
20260414T12Z_MSC_GDPS_WindV_IsbL-0050_LatLon0.15_PT027H.grib2 2026-04-14 16:07 909K
20260414T12Z_MSC_GDPS_WindV_IsbL-0100_LatLon0.15_PT027H.grib2 2026-04-14 16:07 1.1M
20260414T12Z_MSC_GDPS_WindV_IsbL-0150_LatLon0.15_PT027H.grib2 2026-04-14 16:07 1.0M
20260414T12Z_MSC_GDPS_WindV_IsbL-0175_LatLon0.15_PT027H.grib2 2026-04-14 16:07 1.0M
20260414T12Z_MSC_GDPS_WindV_IsbL-0200_LatLon0.15_PT027H.grib2 2026-04-14 16:07 836K
20260414T12Z_MSC_GDPS_WindV_IsbL-0225_LatLon0.15_PT027H.grib2 2026-04-14 16:07 904K
20260414T12Z_MSC_GDPS_WindV_IsbL-0250_LatLon0.15_PT027H.grib2 2026-04-14 16:07 909K
20260414T12Z_MSC_GDPS_WindV_IsbL-0275_LatLon0.15_PT027H.grib2 2026-04-14 16:07 934K
20260414T12Z_MSC_GDPS_WindV_IsbL-0300_LatLon0.15_PT027H.grib2 2026-04-14 16:07 926K
20260414T12Z_MSC_GDPS_WindV_IsbL-0350_LatLon0.15_PT027H.grib2 2026-04-14 16:07 881K
20260414T12Z_MSC_GDPS_WindV_IsbL-0400_LatLon0.15_PT027H.grib2 2026-04-14 16:07 879K
20260414T12Z_MSC_GDPS_WindV_IsbL-0450_LatLon0.15_PT027H.grib2 2026-04-14 16:07 1.1M
20260414T12Z_MSC_GDPS_WindV_IsbL-0500_LatLon0.15_PT027H.grib2 2026-04-14 16:07 1.1M
20260414T12Z_MSC_GDPS_WindV_IsbL-0550_LatLon0.15_PT027H.grib2 2026-04-14 16:07 1.1M
20260414T12Z_MSC_GDPS_WindV_IsbL-0600_LatLon0.15_PT027H.grib2 2026-04-14 16:07 1.1M
20260414T12Z_MSC_GDPS_WindV_IsbL-0650_LatLon0.15_PT027H.grib2 2026-04-14 16:07 1.2M
20260414T12Z_MSC_GDPS_WindV_IsbL-0700_LatLon0.15_PT027H.grib2 2026-04-14 16:07 1.2M
20260414T12Z_MSC_GDPS_WindV_IsbL-0750_LatLon0.15_PT027H.grib2 2026-04-14 16:07 1.3M
20260414T12Z_MSC_GDPS_WindV_IsbL-0800_LatLon0.15_PT027H.grib2 2026-04-14 16:07 1.3M
20260414T12Z_MSC_GDPS_WindV_IsbL-0850_LatLon0.15_PT027H.grib2 2026-04-14 16:07 1.4M
20260414T12Z_MSC_GDPS_WindV_IsbL-0875_LatLon0.15_PT027H.grib2 2026-04-14 16:07 1.4M
20260414T12Z_MSC_GDPS_WindV_IsbL-0900_LatLon0.15_PT027H.grib2 2026-04-14 16:07 1.5M
20260414T12Z_MSC_GDPS_WindV_IsbL-0925_LatLon0.15_PT027H.grib2 2026-04-14 16:07 1.5M
20260414T12Z_MSC_GDPS_WindV_IsbL-0950_LatLon0.15_PT027H.grib2 2026-04-14 16:07 1.4M
20260414T12Z_MSC_GDPS_WindV_IsbL-0970_LatLon0.15_PT027H.grib2 2026-04-14 16:07 1.4M
20260414T12Z_MSC_GDPS_WindV_IsbL-0985_LatLon0.15_PT027H.grib2 2026-04-14 16:07 1.4M
20260414T12Z_MSC_GDPS_WindV_IsbL-1000_LatLon0.15_PT027H.grib2 2026-04-14 16:07 1.4M
20260414T12Z_MSC_GDPS_WindV_IsbL-1015_LatLon0.15_PT027H.grib2 2026-04-14 16:07 1.4M